• In Uzbekistan
  • List of Countries
  • For 7 days
  • Water Temperature
  • Weather Map
  • Weather Widgets
  • user-avatar
    Login

    Hourly Weather Boma

    Today, 19 February, Wednesday

    Time Temperature Precipitation Wind Pressure Humidity
    00:00 +21°C° 0 mm 1 mps 700 mmHg 31%
    01:00 +21°C° 0 mm 1 mps 700 mmHg 31%
    02:00 +20°C° 0 mm 1 mps 699 mmHg 32%
    03:00 +19°C° 0 mm 1 mps 699 mmHg 32%
    04:00 +18°C° 0 mm 1 mps 699 mmHg 32%
    05:00 +18°C° 0 mm 1 mps 699 mmHg 33%
    06:00 +16°C° 0 mm 0 mps 699 mmHg 34%
    07:00 +15°C° 0 mm 0 mps 700 mmHg 35%
    08:00 +21°C° 0 mm 0 mps 700 mmHg 27%
    09:00 +27°C° 0 mm 0 mps 701 mmHg 20%
    10:00 +35°C° 0 mm 1 mps 702 mmHg 12%
    11:00 +36°C° 0 mm 1 mps 701 mmHg 11%
    12:00 +39°C° 0 mm 1 mps 701 mmHg 10%
    13:00 +41°C° 0 mm 1 mps 700 mmHg 9%
    14:00 +41°C° 0 mm 1 mps 699 mmHg 10%
    15:00 +41°C° 0 mm 2 mps 698 mmHg 10%
    16:00 +40°C° 0 mm 2 mps 697 mmHg 11%
    17:00 +36°C° 0 mm 1 mps 697 mmHg 14%
    18:00 +33°C° 0 mm 1 mps 697 mmHg 18%
    19:00 +30°C° 0 mm 1 mps 697 mmHg 21%
    20:00 +29°C° 0 mm 1 mps 698 mmHg 22%
    21:00 +28°C° 0 mm 1 mps 698 mmHg 23%
    22:00 +27°C° 0 mm 1 mps 699 mmHg 25%
    23:00 +25°C° 0 mm 1 mps 699 mmHg 26%

    Tomorrow, 20 February, Thursday

    Time Temperature Precipitation Wind Pressure Humidity
    00:00 +24°C° 0 mm 1 mps 699 mmHg 27%
    01:00 +23°C° 0 mm 1 mps 699 mmHg 28%
    02:00 +22°C° 0 mm 1 mps 698 mmHg 31%
    03:00 +20°C° 0 mm 1 mps 698 mmHg 33%
    04:00 +19°C° 0 mm 1 mps 698 mmHg 35%
    05:00 +19°C° 0 mm 1 mps 698 mmHg 36%
    06:00 +17°C° 0 mm 0 mps 698 mmHg 37%
    07:00 +17°C° 0 mm 0 mps 699 mmHg 37%
    08:00 +23°C° 0 mm 0 mps 700 mmHg 30%
    09:00 +28°C° 0 mm 0 mps 700 mmHg 22%
    10:00 +34°C° 0 mm 0 mps 701 mmHg 14%
    11:00 +36°C° 0 mm 0 mps 701 mmHg 13%
    12:00 +40°C° 0 mm 1 mps 700 mmHg 12%
    13:00 +41°C° 0 mm 1 mps 699 mmHg 11%
    14:00 +41°C° 0 mm 1 mps 698 mmHg 12%
    15:00 +41°C° 0 mm 1 mps 697 mmHg 13%
    16:00 +41°C° 0 mm 2 mps 696 mmHg 13%
    17:00 +37°C° 0 mm 1 mps 696 mmHg 17%
    18:00 +33°C° 0 mm 1 mps 696 mmHg 21%
    19:00 +28°C° 0 mm 0 mps 696 mmHg 25%
    20:00 +27°C° 0 mm 0 mps 697 mmHg 28%
    21:00 +27°C° 0 mm 1 mps 697 mmHg 30%
    22:00 +26°C° 0 mm 1 mps 698 mmHg 33%
    23:00 +25°C° 0 mm 1 mps 698 mmHg 34%

    Day after tomorrow, 21 February, Friday

    Time Temperature Precipitation Wind Pressure Humidity
    00:00 +22°C° 0 mm 0 mps 698 mmHg 35%
    01:00 +21°C° 0 mm 0 mps 698 mmHg 36%
    02:00 +20°C° 0 mm 0 mps 697 mmHg 39%
    03:00 +19°C° 0 mm 0 mps 697 mmHg 42%
    04:00 +18°C° 0 mm 0 mps 697 mmHg 45%
    05:00 +18°C° 0 mm 0 mps 697 mmHg 50%
    06:00 +18°C° 0 mm 0 mps 698 mmHg 54%
    07:00 +17°C° 0 mm 0 mps 698 mmHg 59%
    14:00 +41°C° 0 mm 2 mps 698 mmHg 11%
    15:00 +41°C° 0 mm 2 mps 697 mmHg 12%
    16:00 +41°C° 0 mm 2 mps 697 mmHg 12%
    17:00 +37°C° 0 mm 1 mps 696 mmHg 15%
    18:00 +34°C° 0 mm 1 mps 696 mmHg 19%
    19:00 +29°C° 0 mm 0 mps 696 mmHg 22%
    20:00 +29°C° 0 mm 0 mps 697 mmHg 22%
    21:00 +31°C° 0 mm 1 mps 698 mmHg 22%
    22:00 +31°C° 0 mm 1 mps 699 mmHg 22%
    23:00 +30°C° 0 mm 1 mps 699 mmHg 23%

    22 February, Saturday

    Time Temperature Precipitation Wind Pressure Humidity
    00:00 +29°C° 0 mm 1 mps 699 mmHg 25%
    01:00 +26°C° 0 mm 0 mps 699 mmHg 27%
    02:00 +26°C° 0 mm 1 mps 698 mmHg 37%
    03:00 +25°C° 0 mm 1 mps 698 mmHg 48%
    04:00 +23°C° 0 mm 1 mps 698 mmHg 59%
    05:00 +23°C° 0 mm 1 mps 698 mmHg 67%
    06:00 +20°C° 0 mm 0 mps 698 mmHg 76%
    07:00 +20°C° 0 mm 0 mps 699 mmHg 85%
    08:00 +27°C° 0 mm 1 mps 699 mmHg 63%
    09:00 +31°C° 0 mm 1 mps 700 mmHg 42%
    10:00 +36°C° 0 mm 1 mps 701 mmHg 21%
    11:00 +39°C° 0 mm 2 mps 700 mmHg 18%
    12:00 +41°C° 0 mm 2 mps 700 mmHg 14%
    13:00 +42°C° 0 mm 2 mps 699 mmHg 11%
    14:00 +42°C° 0 mm 2 mps 698 mmHg 11%
    15:00 +43°C° 0 mm 2 mps 698 mmHg 11%
    16:00 +43°C° 0 mm 2 mps 697 mmHg 11%
    17:00 +40°C° 0 mm 2 mps 697 mmHg 13%
    18:00 +37°C° 0 mm 1 mps 697 mmHg 15%
    19:00 +34°C° 0 mm 1 mps 697 mmHg 17%
    20:00 +33°C° 0 mm 1 mps 698 mmHg 19%
    21:00 +32°C° 0 mm 1 mps 699 mmHg 20%
    22:00 +31°C° 0 mm 1 mps 700 mmHg 21%
    23:00 +29°C° 0 mm 1 mps 699 mmHg 27%

    23 February, Sunday

    Time Temperature Precipitation Wind Pressure Humidity
    00:00 +28°C° 0 mm 1 mps 699 mmHg 34%
    01:00 +26°C° 0 mm 1 mps 699 mmHg 40%
    02:00 +24°C° 0 mm 1 mps 698 mmHg 58%
    03:00 +23°C° 0 mm 1 mps 698 mmHg 75%
    04:00 +21°C° 0 mm 1 mps 698 mmHg 92%
    05:00 +21°C° 0 mm 1 mps 699 mmHg 94%
    06:00 +22°C° 0 mm 1 mps 699 mmHg 96%
    07:00 +22°C° 0 mm 1 mps 700 mmHg 98%
    08:00 +26°C° 0 mm 1 mps 700 mmHg 77%
    09:00 +28°C° 0 mm 0 mps 701 mmHg 55%
    10:00 +33°C° 0 mm 0 mps 702 mmHg 34%
    11:00 +36°C° 0 mm 1 mps 701 mmHg 27%
    12:00 +39°C° 0 mm 1 mps 700 mmHg 21%
    13:00 +41°C° 0 mm 2 mps 699 mmHg 14%
    14:00 +41°C° 0 mm 2 mps 699 mmHg 12%
    15:00 +42°C° 0 mm 2 mps 698 mmHg 11%
    16:00 +42°C° 0 mm 2 mps 697 mmHg 9%
    17:00 +39°C° 0 mm 2 mps 697 mmHg 12%
    18:00 +34°C° 0 mm 1 mps 698 mmHg 15%
    19:00 +31°C° 0 mm 1 mps 698 mmHg 17%
    20:00 +30°C° 0 mm 1 mps 698 mmHg 18%
    21:00 +29°C° 0 mm 1 mps 699 mmHg 19%
    22:00 +27°C° 0 mm 1 mps 699 mmHg 20%
    23:00 +26°C° 0 mm 1 mps 699 mmHg 22%

    24 February, Monday

    Time Temperature Precipitation Wind Pressure Humidity
    00:00 +24°C° 0 mm 1 mps 699 mmHg 24%
    01:00 +23°C° 0 mm 1 mps 699 mmHg 26%
    02:00 +22°C° 0 mm 1 mps 698 mmHg 47%
    03:00 +20°C° 0 mm 1 mps 698 mmHg 67%
    04:00 +19°C° 0 mm 1 mps 698 mmHg 87%
    05:00 +20°C° 0 mm 1 mps 698 mmHg 89%
    06:00 +21°C° 0 mm 1 mps 699 mmHg 90%
    07:00 +22°C° 0 mm 1 mps 700 mmHg 92%
    08:00 +26°C° 0 mm 1 mps 701 mmHg 70%
    09:00 +30°C° 0 mm 1 mps 701 mmHg 48%
    10:00 +32°C° 0 mm 0 mps 702 mmHg 26%
    11:00 +36°C° 0 mm 1 mps 701 mmHg 22%
    12:00 +39°C° 0 mm 1 mps 700 mmHg 17%
    13:00 +41°C° 0 mm 1 mps 700 mmHg 12%
    14:00 +41°C° 0 mm 1 mps 699 mmHg 12%
    15:00 +41°C° 0 mm 1 mps 698 mmHg 12%
    16:00 +41°C° 0 mm 1 mps 697 mmHg 11%
    17:00 +36°C° 0 mm 1 mps 697 mmHg 15%
    18:00 +31°C° 0 mm 0 mps 697 mmHg 18%
    19:00 +27°C° 0 mm 0 mps 697 mmHg 22%
    20:00 +26°C° 0 mm 0 mps 698 mmHg 22%
    21:00 +26°C° 0 mm 1 mps 698 mmHg 22%
    22:00 +25°C° 0 mm 1 mps 699 mmHg 23%
    23:00 +24°C° 0 mm 1 mps 699 mmHg 28%
    Show more